Milford, UT

5:56 PM MST on December 05, 2016 (GMT -0700)
Milford Municipal

Weather History for KMLF - May, 2013

Change the Weather History Date:

Monday, May 20, 2013

  Actual Average Record
Temperature  
Mean Temperature 50 °F -  
Max Temperature 64 °F 75 °F 93 °F (2008)
Min Temperature 35 °F 39 °F 28 °F (2003)
Degree Days  
Heating Degree Days 16    
Moisture  
Dew Point 35 °F    
Average Humidity 57    
Maximum Humidity 93    
Minimum Humidity 24    
Precipitation  
Precipitation 0.00 in - - ()
Sea Level Pressure  
Sea Level Pressure 30.08 in    
Wind  
Wind Speed 7 mph (North)    
Max Wind Speed 17 mph    
Max Gust Speed 26 mph    
Visibility 10 miles    
Events      
Averages and records for this station are not official NWS values.
T = Trace of Precipitation, MM = Missing Value Source: NWS Daily Summary

Daily Weather History Graph

Daily Weather History Graph

Search for Another Location

Airport or City:

Trip Planner

Search our weather history database for the weather conditions in past years. The results will help you decide how hot, cold, wet, or windy it might be!

Date:

Astronomy

May. 20, 2013 Rise Set
Actual Time 6:16 AM MDT 8:41 PM MDT
Civil Twilight 5:46 AM MDT 9:11 PM MDT
Nautical Twilight 5:08 AM MDT 9:48 PM MDT
Astronomical Twilight 4:27 AM MDT 10:30 PM MDT
Moon 3:56 PM MDT (5/20) 3:09 AM MDT (5/20)
Length of Visible Light 15h 25m
Length of Day
14h 24m
Waxing Gibbous, 75% of the Moon is Illuminated
May 20
Waxing Gibbous
May 24
Full
May 31
Last Quarter
Jun 8
New
Jun 16
First Quarter

Hourly Weather History & Observations

Time (MDT) Temp. Windchill Dew Point Humidity Pressure Visibility Wind Dir Wind Speed Gust Speed Precip Events Conditions
12:52 AM 44.1 °F 41.5 °F 39.9 °F 85% 30.08 in 10.0 mi NNE 4.6 mph - N/A   Scattered Clouds
1:52 AM 39.9 °F 36.7 °F 37.9 °F 93% 30.07 in 10.0 mi WSW 4.6 mph - N/A   Clear
2:52 AM 39.0 °F 36.8 °F 35.1 °F 86% 30.07 in 10.0 mi NW 3.5 mph - N/A   Clear
3:52 AM 37.9 °F - 34.0 °F 86% 30.06 in 10.0 mi Calm Calm - N/A   Partly Cloudy
4:52 AM 36.0 °F 29.6 °F 33.1 °F 89% 30.06 in 10.0 mi WNW 8.1 mph - N/A   Clear
5:52 AM 36.0 °F - 33.1 °F 89% 30.09 in 10.0 mi Calm Calm - N/A   Partly Cloudy
6:52 AM 35.1 °F - 32.0 °F 89% 30.11 in 10.0 mi Calm Calm - N/A   Clear
7:52 AM 45.0 °F - 39.0 °F 80% 30.10 in 10.0 mi Calm Calm - N/A   Clear
8:52 AM 50.0 °F - 39.0 °F 66% 30.12 in 10.0 mi North 5.8 mph - N/A   Scattered Clouds
9:52 AM 54.0 °F - 34.0 °F 47% 30.12 in 10.0 mi NNE 11.5 mph - N/A   Scattered Clouds
10:52 AM 57.0 °F - 35.1 °F 44% 30.11 in 10.0 mi NE 12.7 mph 18.4 mph N/A   Partly Cloudy
11:52 AM 59.0 °F - 32.0 °F 36% 30.10 in 10.0 mi North 17.3 mph 23.0 mph N/A   Scattered Clouds
12:52 PM 57.9 °F - 33.1 °F 39% 30.11 in 10.0 mi NNE 10.4 mph 20.7 mph N/A   Overcast
1:52 PM 61.0 °F - 34.0 °F 36% 30.09 in 10.0 mi North 15.0 mph 23.0 mph N/A   Mostly Cloudy
2:52 PM 63.0 °F - 35.1 °F 35% 30.09 in 10.0 mi North 16.1 mph 26.5 mph N/A   Mostly Cloudy
3:52 PM 62.1 °F - 35.1 °F 37% 30.09 in 10.0 mi North 15.0 mph - N/A   Overcast
4:52 PM 64.0 °F - 35.1 °F 34% 30.06 in 10.0 mi NNE 16.1 mph - N/A   Overcast
5:52 PM 63.0 °F - 35.1 °F 35% 30.07 in 10.0 mi NNE 12.7 mph - N/A   Mostly Cloudy
6:52 PM 64.0 °F - 35.1 °F 34% 30.05 in 10.0 mi NNE 12.7 mph - N/A   Clear
7:52 PM 62.1 °F - 36.0 °F 38% 30.03 in 10.0 mi NNE 12.7 mph - N/A   Clear
8:52 PM 55.0 °F - 37.0 °F 51% 30.05 in 10.0 mi NE 6.9 mph - N/A   Clear
9:52 PM 48.9 °F - 37.0 °F 64% 30.06 in 10.0 mi NW 3.5 mph - N/A   Clear
10:52 PM 46.9 °F - 37.0 °F 68% 30.06 in 10.0 mi WNW 9.2 mph - N/A   Clear
11:52 PM 46.0 °F 41.0 °F 37.0 °F 71% 30.05 in 10.0 mi West 10.4 mph - N/A   Clear